Date,TemperatureHighF,TemperatureAvgF,TemperatureLowF,DewpointHighF,DewpointAvgF,DewpointLowF,HumidityHigh,HumidityAvg,HumidityLow,PressureMaxIn,PressureMinIn,WindSpeedMaxMPH,WindSpeedAvgMPH,GustSpeedMaxMPH,PrecipitationSumIn
2013-2-1,45.0,33.9,22.0,23.0,17.9,10.0,100,57,27,0.00,40.00,19,-29,37,0.00
2013-2-2,54.0,37.9,25.0,21.0,16.3,7.0,86,46,13,0.00,40.00,13,4,23,0.00
2013-2-3,45.0,37.2,27.0,18.0,12.7,3.0,58,36,17,0.00,40.00,7,-123,17,0.00
2013-2-4,56.0,41.6,28.0,15.0,9.3,4.0,51,25,12,0.00,40.00,166,-63,166,0.00
2013-2-5,56.0,44.1,30.0,21.0,15.9,9.0,55,31,19,0.00,40.00,7,3,15,0.00
2013-2-6,52.0,42.2,34.0,34.0,23.4,16.0,98,51,29,0.00,40.00,10,-45,20,0.00
2013-2-7,47.0,35.8,27.0,34.0,19.9,9.0,99,57,24,0.00,40.00,6,-122,14,0.00
2013-2-8,50.0,34.8,23.0,19.0,11.2,4.0,65,38,15,0.00,40.00,3,-255,11,0.00
2013-2-9,34.0,29.0,23.0,29.0,18.9,8.0,100,69,32,0.00,40.00,166,-44,166,0.00
2013-2-10,36.0,26.5,19.0,21.0,14.7,7.0,92,64,31,0.00,40.00,7,-108,15,0.00
2013-2-11,28.0,20.2,13.0,16.0,14.1,11.0,98,79,56,0.00,40.00,5,-332,10,0.00
2013-2-12,42.0,28.6,15.0,13.0,3.9,-7.0,89,38,10,0.00,40.00,6,-81,15,0.00
2013-2-13,47.0,35.0,24.0,16.0,11.1,5.0,51,36,22,0.00,40.00,19,-1,47,0.00
2013-2-14,35.0,25.5,20.0,25.0,17.9,11.0,96,75,36,0.00,40.00,8,-32,22,0.00
2013-2-15,45.0,27.3,16.0,18.0,14.3,7.0,95,62,20,0.00,40.00,7,-142,16,0.00
2013-2-19,39.0,33.0,26.0,14.0,11.7,10.0,56,40,27,0.00,40.00,4,-52,10,0.00
2013-2-20,36.0,23.6,17.0,28.0,17.7,14.0,100,81,45,0.00,40.00,7,-68,14,0.00
2013-2-21,41.0,20.3,12.0,31.0,17.0,11.0,100,89,42,0.00,40.00,2,-506,8,0.00
2013-2-22,35.0,25.2,17.0,19.0,15.7,6.0,97,70,42,0.00,40.00,5,-123,11,0.00
2013-2-23,44.0,28.4,15.0,27.0,16.9,4.0,100,64,39,0.00,40.00,52,-206,52,0.00
2013-2-24,27.0,24.4,21.0,27.0,23.9,17.0,100,98,83,0.00,40.00,13,-10,27,0.00
2013-2-25,40.0,24.3,14.0,21.0,16.0,12.0,98,74,37,0.00,40.00,7,-262,14,0.00
2013-2-26,43.0,25.9,18.0,25.0,18.2,13.0,95,74,49,0.00,40.00,29,-52,29,0.00
2013-2-27,51.0,28.1,18.0,14.0,10.2,5.0,74,49,15,0.00,40.00,10,-31,16,0.00
2013-2-28,48.0,33.4,21.0,19.0,9.8,3.0,67,37,17,0.00,40.00,12,4,24,0.00